Durango, CO

3:18 AM MDT on September 22, 2019 (GMT -0600)
Durango-La Plata County

Weather History for KDRO - May, 2019

Change the Weather History Date:

Tuesday, May 21, 2019

  Actual Average Record
Temperature  
Mean Temperature 40 °F 55 °F  
Max Temperature 51 °F 73 °F 84 °F (2005)
Min Temperature 30 °F 37 °F 22 °F (1974)
Degree Days  
Heating Degree Days 24 10  
Month to date heating degree days 341 282  
Since 1 July heating degree days 7147 6918  
Cooling Degree Days 0 0  
Month to date cooling degree days 0 0  
Year to date cooling degree days 0 0  
Moisture  
Dew Point 33 °F    
Average Humidity 89    
Maximum Humidity 100    
Minimum Humidity 46    
Precipitation  
Precipitation 0.12 in 0.02 in 0.22 in (1978)
Month to date precipitation 1.43 0.64  
Year to date precipitation 9.20 5.27  
Sea Level Pressure  
Sea Level Pressure 29.70 in    
Wind  
Wind Speed 8 mph ()    
Max Wind Speed 29 mph    
Max Gust Speed 42 mph    
Visibility 9.0 miles    
Events Rain , Snow , Thunderstorm    
T = Trace of Precipitation, MM = Missing Value Source: Averaged Metar Reports

Daily Weather History Graph

Daily Weather History Graph

Search for Another Location

Airport or City:

Astronomy

May. 21, 2019 Rise Set
Actual Time 5:58 AM MDT 8:17 PM MDT
Civil Twilight 5:28 AM MDT 8:47 PM MDT
Nautical Twilight 4:52 AM MDT 9:23 PM MDT
Astronomical Twilight 4:12 AM MDT 10:03 PM MDT
Moon 11:14 PM MDT (5/21) 8:17 AM MDT (5/21)
Length of Visible Light 15h 18m
Length of Day
14h 19m
Waning Gibbous, 91% of the Moon is Illuminated
May 21
Waning Gibbous
May 26
Last Quarter
Jun 3
New
Jun 10
First Quarter
Jun 17
Full

Hourly Weather History & Observations

Time (MDT) Temp. Windchill Dew Point Humidity Pressure Visibility Wind Dir Wind Speed Gust Speed Precip Events Conditions
12:04 AM 30.9 °F 24.3 °F 30.9 °F 100% 29.77 in 0.8 mi SW 6.9 mph - 0.00 in Snow Light Snow
12:07 AM 30.9 °F 24.3 °F 30.9 °F 100% 29.77 in 1.0 mi SW 6.9 mph - 0.00 in Snow Light Snow
12:10 AM 32.0 °F 27.5 °F 30.9 °F 96% 29.77 in 2.5 mi WSW 4.6 mph - 0.01 in Snow Light Snow
12:15 AM 32.0 °F 26.4 °F 30.9 °F 96% 29.76 in 4.0 mi WSW 5.8 mph - 0.01 in Snow Light Snow
12:22 AM 32.0 °F 26.4 °F 30.9 °F 96% 29.76 in 5.0 mi WSW 5.8 mph - 0.01 in Snow Light Snow
12:32 AM 32.0 °F 24.8 °F 30.9 °F 96% 29.76 in 7.0 mi WSW 8.1 mph - 0.01 in Snow Light Snow
12:41 AM 32.0 °F 25.6 °F 30.9 °F 96% 29.76 in 9.0 mi WSW 6.9 mph - 0.01 in   Overcast
12:53 AM 32.0 °F 26.4 °F 30.9 °F 96% 29.78 in 10.0 mi WSW 5.8 mph - 0.01 in   Overcast
1:53 AM 32.0 °F 24.2 °F 30.9 °F 96% 29.74 in 10.0 mi WSW 9.2 mph - N/A   Overcast
2:14 AM 32.0 °F 24.8 °F 30.9 °F 96% 29.72 in 10.0 mi WSW 8.1 mph - N/A   Overcast
2:31 AM 32.0 °F 24.2 °F 30.9 °F 96% 29.73 in 10.0 mi SW 9.2 mph - N/A   Overcast
2:53 AM 32.0 °F 24.2 °F 30.9 °F 96% 29.73 in 10.0 mi SW 9.2 mph - N/A   Overcast
3:13 AM 32.0 °F 25.6 °F 30.9 °F 96% 29.74 in 10.0 mi WSW 6.9 mph - N/A   Overcast
3:29 AM 32.0 °F 26.4 °F 30.9 °F 96% 29.74 in 10.0 mi WSW 5.8 mph - N/A   Overcast
3:53 AM 32.0 °F 23.6 °F 30.9 °F 96% 29.73 in 10.0 mi WSW 10.4 mph - N/A   Mostly Cloudy
4:17 AM 30.9 °F 22.8 °F 30.9 °F 100% 29.72 in 10.0 mi WSW 9.2 mph - N/A   Partly Cloudy
4:53 AM 30.9 °F 22.2 °F 30.0 °F 96% 29.71 in 10.0 mi WSW 10.4 mph - N/A   Mostly Cloudy
5:37 AM 30.9 °F 23.5 °F 30.0 °F 96% 29.72 in 10.0 mi SW 8.1 mph - N/A   Scattered Clouds
5:53 AM 30.9 °F 24.3 °F 30.0 °F 96% 29.70 in 10.0 mi WSW 6.9 mph - N/A   Clear
6:53 AM 32.0 °F 23.0 °F 30.0 °F 92% 29.74 in 10.0 mi West 11.5 mph - N/A   Clear
7:53 AM 35.1 °F 27.4 °F 32.0 °F 89% 29.73 in 10.0 mi West 10.4 mph - N/A   Clear
8:22 AM 37.9 °F 29.2 °F 33.1 °F 83% 29.72 in 10.0 mi West 15.0 mph - N/A   Mostly Cloudy
8:53 AM 37.9 °F 27.6 °F 32.0 °F 79% 29.72 in 10.0 mi West 20.7 mph 29.9 mph N/A   Mostly Cloudy
9:09 AM 41.0 °F 32.5 °F 34.0 °F 76% 29.71 in 10.0 mi West 17.3 mph 31.1 mph N/A   Scattered Clouds
9:53 AM 43.0 °F 34.2 °F 33.1 °F 68% 29.69 in 10.0 mi West 20.7 mph 36.8 mph N/A   Mostly Cloudy
10:53 AM 46.9 °F - 34.0 °F 61% 29.66 in 10.0 mi West 18.4 mph 28.8 mph N/A   Mostly Cloudy
11:53 AM 48.0 °F - 34.0 °F 58% 29.66 in 10.0 mi West 23.0 mph 33.4 mph N/A   Scattered Clouds
12:53 PM 46.9 °F - 34.0 °F 61% 29.65 in 10.0 mi WSW 17.3 mph 28.8 mph N/A   Mostly Cloudy
1:53 PM 50.0 °F - 30.9 °F 48% 29.60 in 10.0 mi West 18.4 mph 34.5 mph N/A   Partly Cloudy
2:53 PM 46.9 °F - 39.0 °F 74% 29.62 in 10.0 mi West 16.1 mph 21.9 mph 0.01 in   Scattered Clouds
3:20 PM 48.0 °F - 37.0 °F 66% 29.66 in 10.0 mi NW 13.8 mph 21.9 mph N/A   Scattered Clouds
3:53 PM 44.1 °F 37.1 °F 36.0 °F 73% 29.63 in 10.0 mi SW 15.0 mph 29.9 mph 0.00 in Rain Light Rain
4:00 PM 41.0 °F 32.5 °F 37.0 °F 86% 29.67 in 7.0 mi West 17.3 mph 38.0 mph 0.02 in Rain Rain
4:14 PM 42.1 °F 33.9 °F 41.0 °F 96% 29.67 in 10.0 mi WNW 17.3 mph 28.8 mph 0.02 in   Mostly Cloudy
4:53 PM 45.0 °F 40.1 °F - N/A% 29.63 in 10.0 mi NW 9.2 mph - 0.02 in   Clear
5:43 PM 41.0 °F 34.3 °F - N/A% 29.67 in 10.0 mi WNW 11.5 mph 27.6 mph 0.01 in Thunderstorm Overcast
5:53 PM 41.0 °F 35.8 °F - N/A% 29.67 in 10.0 mi West 8.1 mph - 0.01 in Thunderstorm Overcast
6:08 PM 41.0 °F 38.0 °F - N/A% 29.67 in 10.0 mi Variable 4.6 mph - N/A   Overcast
6:53 PM 42.1 °F 40.2 °F - N/A% 29.66 in 10.0 mi SE 3.5 mph - 0.00 in   Overcast
7:53 PM 39.9 °F 32.9 °F 39.9 °F 100% 29.67 in 10.0 mi NNW 11.5 mph - N/A   Overcast
8:53 PM 37.9 °F - 37.9 °F 100% 29.66 in 10.0 mi Calm Calm - 0.00 in   Overcast
9:22 PM 37.9 °F - 37.9 °F 100% 29.70 in 8.0 mi Calm Calm - 0.01 in Rain Light Rain
9:32 PM 37.0 °F 34.5 °F 37.0 °F 100% 29.70 in 10.0 mi ESE 3.5 mph - 0.01 in   Mostly Cloudy
9:53 PM 37.0 °F 33.3 °F 37.0 °F 100% 29.67 in 10.0 mi East 4.6 mph - 0.01 in   Overcast
10:24 PM 37.9 °F 33.5 °F 36.0 °F 93% 29.71 in 10.0 mi ESE 5.8 mph - 0.00 in Rain Light Rain
10:37 PM 37.9 °F 34.4 °F 37.0 °F 97% 29.72 in 10.0 mi ESE 4.6 mph - 0.00 in   Overcast
10:44 PM 37.9 °F 32.7 °F 37.0 °F 97% 29.72 in 10.0 mi ESE 6.9 mph - 0.00 in   Overcast
10:53 PM 37.9 °F 32.1 °F 37.0 °F 97% 29.65 in 10.0 mi SSE 8.1 mph - 0.00 in Rain Light Rain
11:12 PM 37.0 °F 34.5 °F 36.0 °F 96% 29.71 in 10.0 mi SSE 3.5 mph - 0.01 in Rain Light Rain
11:53 PM 33.1 °F 28.7 °F 33.1 °F 100% 29.68 in 4.0 mi NNW 4.6 mph - 0.06 in Rain Rain